Year,Month,Day,Hour,Minute,Value (Times are PST for temperature in C)
2016,04,18,00,00,12.20
2016,04,18,00,01,12.20
2016,04,18,00,02,12.20
2016,04,18,00,03,12.20
2016,04,18,00,04,12.20
2016,04,18,00,05,12.20
2016,04,18,00,06,12.20
2016,04,18,00,07,12.20
2016,04,18,00,08,12.20
2016,04,18,00,09,12.20
2016,04,18,00,10,12.10
2016,04,18,00,11,12.10
2016,04,18,00,12,12.10
2016,04,18,00,13,12.10
2016,04,18,00,14,12.10
2016,04,18,00,15,12.10
2016,04,18,00,16,12.10
2016,04,18,00,17,12.10
2016,04,18,00,18,12.10
2016,04,18,00,19,12.10
2016,04,18,00,20,12.10
2016,04,18,00,21,12.10
2016,04,18,00,22,12.00
2016,04,18,00,23,12.00
2016,04,18,00,24,12.00
2016,04,18,00,25,12.00
2016,04,18,00,26,11.90
2016,04,18,00,27,11.90
2016,04,18,00,28,11.90
2016,04,18,00,29,11.90
2016,04,18,00,30,11.90
2016,04,18,00,31,11.90
2016,04,18,00,32,11.80
2016,04,18,00,33,11.90
2016,04,18,00,34,11.90
2016,04,18,00,35,11.90
2016,04,18,00,36,11.90
2016,04,18,00,37,11.90
2016,04,18,00,38,11.90
2016,04,18,00,39,12.00
2016,04,18,00,40,12.00
2016,04,18,00,41,12.10
2016,04,18,00,42,12.10
2016,04,18,00,43,12.20
2016,04,18,00,44,12.20
2016,04,18,00,45,12.30
2016,04,18,00,46,12.30
2016,04,18,00,47,12.40
2016,04,18,00,48,12.50
2016,04,18,00,49,12.50
2016,04,18,00,50,12.60
2016,04,18,00,51,12.60
2016,04,18,00,52,12.60
2016,04,18,00,53,12.60
2016,04,18,00,54,12.70
2016,04,18,00,55,12.70
2016,04,18,00,56,12.70
2016,04,18,00,57,12.70
2016,04,18,00,58,12.70
2016,04,18,00,59,12.70
2016,04,18,01,00,12.70
2016,04,18,01,01,12.80
2016,04,18,01,02,12.80
2016,04,18,01,03,12.80
2016,04,18,01,04,12.80
2016,04,18,01,05,12.80
2016,04,18,01,06,12.80
2016,04,18,01,07,12.80
2016,04,18,01,08,12.80
2016,04,18,01,09,12.80
2016,04,18,01,10,12.80
2016,04,18,01,11,12.90
2016,04,18,01,12,12.90
2016,04,18,01,13,12.90
2016,04,18,01,14,12.90
2016,04,18,01,15,12.90
2016,04,18,01,16,13.00
2016,04,18,01,17,13.10
2016,04,18,01,18,13.10
2016,04,18,01,19,13.20
2016,04,18,01,20,13.20
2016,04,18,01,21,13.30
2016,04,18,01,22,13.40
2016,04,18,01,23,13.50
2016,04,18,01,24,13.60
2016,04,18,01,25,13.80
2016,04,18,01,26,13.90
2016,04,18,01,27,14.00
2016,04,18,01,28,14.00
2016,04,18,01,29,14.10
2016,04,18,01,30,14.20
2016,04,18,01,31,14.30
2016,04,18,01,32,14.30
2016,04,18,01,33,14.40
2016,04,18,01,34,14.40
2016,04,18,01,35,14.40
2016,04,18,01,36,14.50
2016,04,18,01,37,14.50
2016,04,18,01,38,14.50
2016,04,18,01,39,14.40
2016,04,18,01,40,14.40
2016,04,18,01,41,14.40
2016,04,18,01,42,14.30
2016,04,18,01,43,14.30
2016,04,18,01,44,14.20
2016,04,18,01,45,14.10
2016,04,18,01,46,14.00
2016,04,18,01,47,14.00
2016,04,18,01,48,13.90
2016,04,18,01,49,13.90
2016,04,18,01,50,13.90
2016,04,18,01,51,13.80
2016,04,18,01,52,13.80
2016,04,18,01,53,13.70
2016,04,18,01,54,13.70
2016,04,18,01,55,13.60
2016,04,18,01,56,13.60
2016,04,18,01,57,13.50
2016,04,18,01,58,13.40
2016,04,18,01,59,13.40
2016,04,18,02,00,13.30
2016,04,18,02,01,13.30
2016,04,18,02,02,13.20
2016,04,18,02,03,13.20
2016,04,18,02,04,13.20
2016,04,18,02,05,13.10
2016,04,18,02,06,13.10
2016,04,18,02,07,13.10
2016,04,18,02,08,13.10
2016,04,18,02,09,13.10
2016,04,18,02,10,13.10
2016,04,18,02,11,13.10
2016,04,18,02,12,13.10
2016,04,18,02,13,13.10
2016,04,18,02,14,13.10
2016,04,18,02,15,13.10
2016,04,18,02,16,13.10
2016,04,18,02,17,13.10
2016,04,18,02,18,13.10
2016,04,18,02,19,13.10
2016,04,18,02,20,13.10
2016,04,18,02,21,13.10
2016,04,18,02,22,13.20
2016,04,18,02,23,13.20
2016,04,18,02,24,13.20
2016,04,18,02,25,13.20
2016,04,18,02,26,13.20
2016,04,18,02,27,13.10
2016,04,18,02,28,13.10
2016,04,18,02,29,13.10
2016,04,18,02,30,13.10
2016,04,18,02,31,13.00
2016,04,18,02,32,13.00
2016,04,18,02,33,12.90
2016,04,18,02,34,12.90
2016,04,18,02,35,12.90
2016,04,18,02,36,12.80
2016,04,18,02,37,12.80
2016,04,18,02,38,12.80
2016,04,18,02,39,12.80
2016,04,18,02,40,12.80
2016,04,18,02,41,12.70
2016,04,18,02,42,12.70
2016,04,18,02,43,12.70
2016,04,18,02,44,12.60
2016,04,18,02,45,12.60
2016,04,18,02,46,12.60
2016,04,18,02,47,12.60
2016,04,18,02,48,12.60
2016,04,18,02,49,12.60
2016,04,18,02,50,12.60
2016,04,18,02,51,12.60
2016,04,18,02,52,12.60
2016,04,18,02,53,12.70
2016,04,18,02,54,12.70
2016,04,18,02,55,12.80
2016,04,18,02,56,12.80
2016,04,18,02,57,12.80
2016,04,18,02,58,12.90
2016,04,18,02,59,12.90
2016,04,18,03,00,13.00
2016,04,18,03,01,13.00
2016,04,18,03,02,13.10
2016,04,18,03,03,13.10
2016,04,18,03,04,13.10
2016,04,18,03,05,13.20
2016,04,18,03,06,13.20
2016,04,18,03,07,13.20
2016,04,18,03,08,13.20
2016,04,18,03,09,13.20
2016,04,18,03,10,13.10
2016,04,18,03,11,13.10
2016,04,18,03,12,13.10
2016,04,18,03,13,13.20
2016,04,18,03,14,13.20
2016,04,18,03,15,13.20
2016,04,18,03,16,13.20
2016,04,18,03,17,13.30
2016,04,18,03,18,13.30
2016,04,18,03,19,13.30
2016,04,18,03,20,13.30
2016,04,18,03,21,13.30
2016,04,18,03,22,13.40
2016,04,18,03,23,13.40
2016,04,18,03,24,13.40
2016,04,18,03,25,13.40
2016,04,18,03,26,13.40
2016,04,18,03,27,13.40
2016,04,18,03,28,13.40
2016,04,18,03,29,13.40
2016,04,18,03,30,13.40
2016,04,18,03,31,13.40
2016,04,18,03,32,13.50
2016,04,18,03,33,13.50
2016,04,18,03,34,13.60
2016,04,18,03,35,13.60
2016,04,18,03,36,13.60
2016,04,18,03,37,13.70
2016,04,18,03,38,13.70
2016,04,18,03,39,13.70
2016,04,18,03,40,13.70
2016,04,18,03,41,13.60
2016,04,18,03,42,13.60
2016,04,18,03,43,13.60
2016,04,18,03,44,13.60
2016,04,18,03,45,13.50
2016,04,18,03,46,13.50
2016,04,18,03,47,13.50
2016,04,18,03,48,13.40
2016,04,18,03,49,13.40
2016,04,18,03,50,13.40
2016,04,18,03,51,13.40
2016,04,18,03,52,13.30
2016,04,18,03,53,13.30
2016,04,18,03,54,13.30
2016,04,18,03,55,13.20
2016,04,18,03,56,13.20
2016,04,18,03,57,13.20
2016,04,18,03,58,13.20
2016,04,18,03,59,13.10
2016,04,18,04,00,13.10
2016,04,18,04,01,13.10
2016,04,18,04,02,13.10
2016,04,18,04,03,13.10
2016,04,18,04,04,13.10
2016,04,18,04,05,13.10
2016,04,18,04,06,13.00
2016,04,18,04,07,13.00
2016,04,18,04,08,13.00
2016,04,18,04,09,13.10
2016,04,18,04,10,13.10
2016,04,18,04,11,13.10
2016,04,18,04,12,13.00
2016,04,18,04,13,13.00
2016,04,18,04,14,12.90
2016,04,18,04,15,12.80
2016,04,18,04,16,12.80
2016,04,18,04,17,12.70
2016,04,18,04,18,12.60
2016,04,18,04,19,12.60
2016,04,18,04,20,12.60
2016,04,18,04,21,12.60
2016,04,18,04,22,12.60
2016,04,18,04,23,12.60
2016,04,18,04,24,12.70
2016,04,18,04,25,12.70
2016,04,18,04,26,12.80
2016,04,18,04,27,12.80
2016,04,18,04,28,12.90
2016,04,18,04,29,13.00
2016,04,18,04,30,13.00
2016,04,18,04,31,13.10
2016,04,18,04,32,13.20
2016,04,18,04,33,13.20
2016,04,18,04,34,13.30
2016,04,18,04,35,13.30
2016,04,18,04,36,13.30
2016,04,18,04,37,13.30
2016,04,18,04,38,13.30
2016,04,18,04,39,13.40
2016,04,18,04,40,13.40
2016,04,18,04,41,13.40
2016,04,18,04,42,13.40
2016,04,18,04,43,13.50
2016,04,18,04,44,13.50
2016,04,18,04,45,13.60
2016,04,18,04,46,13.60
2016,04,18,04,47,13.70
2016,04,18,04,48,13.70
2016,04,18,04,49,13.70
2016,04,18,04,50,13.80
2016,04,18,04,51,13.80
2016,04,18,04,52,13.90
2016,04,18,04,53,14.00
2016,04,18,04,54,14.00
2016,04,18,04,55,14.10
2016,04,18,04,56,14.10
2016,04,18,04,57,14.10
2016,04,18,04,58,14.10
2016,04,18,04,59,14.10
2016,04,18,05,00,14.10
2016,04,18,05,01,14.10
2016,04,18,05,02,14.00
2016,04,18,05,03,14.00
2016,04,18,05,04,14.00
2016,04,18,05,05,13.90
2016,04,18,05,06,13.90
2016,04,18,05,07,13.90
2016,04,18,05,08,13.90
2016,04,18,05,09,13.90
2016,04,18,05,10,13.90
2016,04,18,05,11,13.90
2016,04,18,05,12,13.90
2016,04,18,05,13,13.90
2016,04,18,05,14,13.90
2016,04,18,05,15,13.90
2016,04,18,05,16,13.90
2016,04,18,05,17,14.00
2016,04,18,05,18,14.00
2016,04,18,05,19,14.00
2016,04,18,05,20,14.10
2016,04,18,05,21,14.10
2016,04,18,05,22,14.10
2016,04,18,05,23,14.10
2016,04,18,05,24,14.10
2016,04,18,05,25,14.10
2016,04,18,05,26,14.10
2016,04,18,05,27,14.10
2016,04,18,05,28,14.10
2016,04,18,05,29,14.10
2016,04,18,05,30,14.10
2016,04,18,05,31,14.10
2016,04,18,05,32,14.10
2016,04,18,05,33,14.10
2016,04,18,05,34,14.10
2016,04,18,05,35,14.10
2016,04,18,05,36,14.20
2016,04,18,05,37,14.20
2016,04,18,05,38,14.20
2016,04,18,05,39,14.20
2016,04,18,05,40,14.20
2016,04,18,05,41,14.10
2016,04,18,05,42,14.10
2016,04,18,05,43,14.10
2016,04,18,05,44,14.10
2016,04,18,05,45,14.10
2016,04,18,05,46,14.10
2016,04,18,05,47,14.10
2016,04,18,05,48,14.10
2016,04,18,05,49,14.20
2016,04,18,05,50,14.20
2016,04,18,05,51,14.20
2016,04,18,05,52,14.20
2016,04,18,05,53,14.20
2016,04,18,05,54,14.20
2016,04,18,05,55,14.20
2016,04,18,05,56,14.20
2016,04,18,05,57,14.30
2016,04,18,05,58,14.30
2016,04,18,05,59,14.30
2016,04,18,06,00,14.30
2016,04,18,06,01,14.40
2016,04,18,06,02,14.40
2016,04,18,06,03,14.40
2016,04,18,06,04,14.30
2016,04,18,06,05,14.30
2016,04,18,06,06,14.40
2016,04,18,06,07,14.40
2016,04,18,06,08,14.40
2016,04,18,06,09,14.40
2016,04,18,06,10,14.40
2016,04,18,06,11,14.40
2016,04,18,06,12,14.40
2016,04,18,06,13,14.40
2016,04,18,06,14,14.40
2016,04,18,06,15,14.40
2016,04,18,06,16,14.40
2016,04,18,06,17,14.40
2016,04,18,06,18,14.40
2016,04,18,06,19,14.40
2016,04,18,06,20,14.40
2016,04,18,06,21,14.40
2016,04,18,06,22,14.40
2016,04,18,06,23,14.50
2016,04,18,06,24,14.50
2016,04,18,06,25,14.50
2016,04,18,06,26,14.60
2016,04,18,06,27,14.60
2016,04,18,06,28,14.50
2016,04,18,06,29,14.50
2016,04,18,06,30,14.50
2016,04,18,06,31,14.50
2016,04,18,06,32,14.50
2016,04,18,06,33,14.50
2016,04,18,06,34,14.50
2016,04,18,06,35,14.50
2016,04,18,06,36,14.50
2016,04,18,06,37,14.50
2016,04,18,06,38,14.50
2016,04,18,06,39,14.50
2016,04,18,06,40,14.50
2016,04,18,06,41,14.50
2016,04,18,06,42,14.50
2016,04,18,06,43,14.60
2016,04,18,06,44,14.60
2016,04,18,06,45,14.60
2016,04,18,06,46,14.60
2016,04,18,06,47,14.60
2016,04,18,06,48,14.60
2016,04,18,06,49,14.60
2016,04,18,06,50,14.50
2016,04,18,06,51,14.50
2016,04,18,06,52,14.40
2016,04,18,06,53,14.40
2016,04,18,06,54,14.40
2016,04,18,06,55,14.30
2016,04,18,06,56,14.30
2016,04,18,06,57,14.30
2016,04,18,06,58,14.30
2016,04,18,06,59,14.30
2016,04,18,07,00,14.30
2016,04,18,07,01,14.30
2016,04,18,07,02,14.30
2016,04,18,07,03,14.30
2016,04,18,07,04,14.30
2016,04,18,07,05,14.30
2016,04,18,07,06,14.30
2016,04,18,07,07,14.30
2016,04,18,07,08,14.30
2016,04,18,07,09,14.30
2016,04,18,07,10,14.30
2016,04,18,07,11,14.30
2016,04,18,07,12,14.30
2016,04,18,07,13,14.30
2016,04,18,07,14,14.30
2016,04,18,07,15,14.30
2016,04,18,07,16,14.30
2016,04,18,07,17,14.30
2016,04,18,07,18,14.30
2016,04,18,07,19,14.30
2016,04,18,07,20,14.40
2016,04,18,07,21,14.40
2016,04,18,07,22,14.40
2016,04,18,07,23,14.40
2016,04,18,07,24,14.40
2016,04,18,07,25,14.40
2016,04,18,07,26,14.50
2016,04,18,07,27,14.50
2016,04,18,07,28,14.50
2016,04,18,07,29,14.60
2016,04,18,07,30,14.50
2016,04,18,07,31,14.50
2016,04,18,07,32,14.50
2016,04,18,07,33,14.50
2016,04,18,07,34,14.60
2016,04,18,07,35,14.60
2016,04,18,07,36,14.60
2016,04,18,07,37,14.70
2016,04,18,07,38,14.80
2016,04,18,07,39,14.90
2016,04,18,07,40,14.90
2016,04,18,07,41,14.90
2016,04,18,07,42,14.90
2016,04,18,07,43,14.90
2016,04,18,07,44,14.90
2016,04,18,07,45,14.80
2016,04,18,07,46,14.80
2016,04,18,07,47,14.80
2016,04,18,07,48,14.80
2016,04,18,07,49,14.80
2016,04,18,07,50,14.90
2016,04,18,07,51,14.90
2016,04,18,07,52,14.90
2016,04,18,07,53,14.90
2016,04,18,07,54,14.90
2016,04,18,07,55,14.90
2016,04,18,07,56,15.00
2016,04,18,07,57,15.00
2016,04,18,07,58,15.10
2016,04,18,07,59,15.10
2016,04,18,08,00,15.10
2016,04,18,08,01,15.10
2016,04,18,08,02,15.10
2016,04,18,08,03,15.10
2016,04,18,08,04,15.20
2016,04,18,08,05,15.20
2016,04,18,08,06,15.20
2016,04,18,08,07,15.20
2016,04,18,08,08,15.20
2016,04,18,08,09,15.20
2016,04,18,08,10,15.30
2016,04,18,08,11,15.30
2016,04,18,08,12,15.40
2016,04,18,08,13,15.40
2016,04,18,08,14,15.40
2016,04,18,08,15,15.50
2016,04,18,08,16,15.50
2016,04,18,08,17,15.50
2016,04,18,08,18,15.60
2016,04,18,08,19,15.60
2016,04,18,08,20,15.70
2016,04,18,08,21,15.70
2016,04,18,08,22,15.70
2016,04,18,08,23,15.70
2016,04,18,08,24,15.70
2016,04,18,08,25,15.80
2016,04,18,08,26,15.80
2016,04,18,08,27,15.80
2016,04,18,08,28,15.80
2016,04,18,08,29,15.80
2016,04,18,08,30,15.80
2016,04,18,08,31,15.80
2016,04,18,08,32,15.80
2016,04,18,08,33,15.80
2016,04,18,08,34,15.90
2016,04,18,08,35,16.00
2016,04,18,08,36,16.10
2016,04,18,08,37,16.10
2016,04,18,08,38,16.10
2016,04,18,08,39,16.20
2016,04,18,08,40,16.30
2016,04,18,08,41,16.30
2016,04,18,08,42,16.40
2016,04,18,08,43,16.50
2016,04,18,08,44,16.60
2016,04,18,08,45,16.70
2016,04,18,08,46,16.80
2016,04,18,08,47,16.90
2016,04,18,08,48,17.00
2016,04,18,08,49,17.10
2016,04,18,08,50,17.20
2016,04,18,08,51,17.30
2016,04,18,08,52,17.50
2016,04,18,08,53,17.60
2016,04,18,08,54,17.80
2016,04,18,08,55,18.00
2016,04,18,08,56,18.10
2016,04,18,08,57,18.30
2016,04,18,08,58,18.40
2016,04,18,08,59,18.50
2016,04,18,09,00,18.50
2016,04,18,09,01,18.60
2016,04,18,09,02,18.70
2016,04,18,09,03,18.80
2016,04,18,09,04,18.90
2016,04,18,09,05,19.10
2016,04,18,09,06,19.20
2016,04,18,09,07,19.30
2016,04,18,09,08,19.30
2016,04,18,09,09,19.30
2016,04,18,09,10,19.20
2016,04,18,09,11,19.10
2016,04,18,09,12,19.00
2016,04,18,09,13,18.90
2016,04,18,09,14,18.80
2016,04,18,09,15,18.70
2016,04,18,09,16,18.70
2016,04,18,09,17,18.70
2016,04,18,09,18,18.70
2016,04,18,09,19,18.80
2016,04,18,09,20,18.80
2016,04,18,09,21,18.70
2016,04,18,09,22,18.70
2016,04,18,09,23,18.60
2016,04,18,09,24,18.50
2016,04,18,09,25,18.40
2016,04,18,09,26,18.40
2016,04,18,09,27,18.30
2016,04,18,09,28,18.40
2016,04,18,09,29,18.60
2016,04,18,09,30,18.80
2016,04,18,09,31,18.90
2016,04,18,09,32,19.10
2016,04,18,09,33,19.20
2016,04,18,09,34,19.30
2016,04,18,09,35,19.40
2016,04,18,09,36,19.40
2016,04,18,09,37,19.50
2016,04,18,09,38,19.60
2016,04,18,09,39,19.50
2016,04,18,09,40,19.50
2016,04,18,09,41,19.50
2016,04,18,09,42,19.60
2016,04,18,09,43,19.70
2016,04,18,09,44,19.80
2016,04,18,09,45,20.00
2016,04,18,09,46,20.20
2016,04,18,09,47,20.40
2016,04,18,09,48,20.50
2016,04,18,09,49,20.70
2016,04,18,09,50,20.80
2016,04,18,09,51,20.90
2016,04,18,09,52,21.00
2016,04,18,09,53,21.10
2016,04,18,09,54,21.20
2016,04,18,09,55,21.40
2016,04,18,09,56,21.50
2016,04,18,09,57,21.70
2016,04,18,09,58,21.80
2016,04,18,09,59,21.90
2016,04,18,10,00,22.00
2016,04,18,10,01,22.10
2016,04,18,10,02,22.10
2016,04,18,10,03,22.20
2016,04,18,10,04,22.20
2016,04,18,10,05,22.30
2016,04,18,10,06,22.30
2016,04,18,10,07,22.30
2016,04,18,10,08,22.30
2016,04,18,10,09,22.30
2016,04,18,10,10,22.30
2016,04,18,10,11,22.40
2016,04,18,10,12,22.40
2016,04,18,10,13,22.40
2016,04,18,10,14,22.40
2016,04,18,10,15,22.40
2016,04,18,10,16,22.50
2016,04,18,10,17,22.50
2016,04,18,10,18,22.50
2016,04,18,10,19,22.50
2016,04,18,10,20,22.50
2016,04,18,10,21,22.50
2016,04,18,10,22,22.50
2016,04,18,10,23,22.40
2016,04,18,10,24,22.40
2016,04,18,10,25,22.30
2016,04,18,10,26,22.30
2016,04,18,10,27,22.30
2016,04,18,10,28,22.40
2016,04,18,10,29,22.40
2016,04,18,10,30,22.40
2016,04,18,10,31,22.40
2016,04,18,10,32,22.30
2016,04,18,10,33,22.30
2016,04,18,10,34,22.30
2016,04,18,10,35,22.30
2016,04,18,10,36,22.30
2016,04,18,10,37,22.20
2016,04,18,10,38,22.20
2016,04,18,10,39,22.20
2016,04,18,10,40,22.20
2016,04,18,10,41,22.20
2016,04,18,10,42,22.10
2016,04,18,10,43,22.10
2016,04,18,10,44,22.10
2016,04,18,10,45,22.10
2016,04,18,10,46,22.10
2016,04,18,10,47,22.10
2016,04,18,10,48,22.10
2016,04,18,10,49,22.10
2016,04,18,10,50,22.10
2016,04,18,10,51,22.10
2016,04,18,10,52,22.10
2016,04,18,10,53,22.10
2016,04,18,10,54,22.10
2016,04,18,10,55,22.00
2016,04,18,10,56,22.00
2016,04,18,10,57,21.90
2016,04,18,10,58,21.80
2016,04,18,10,59,21.80
2016,04,18,11,00,21.80
2016,04,18,11,01,21.90
2016,04,18,11,02,21.90
2016,04,18,11,03,21.90
2016,04,18,11,04,21.80
2016,04,18,11,05,21.90
2016,04,18,11,06,21.90
2016,04,18,11,07,21.90
2016,04,18,11,08,21.90
2016,04,18,11,09,21.90
2016,04,18,11,10,21.90
2016,04,18,11,11,21.80
2016,04,18,11,12,21.80
2016,04,18,11,13,21.70
2016,04,18,11,14,21.60
2016,04,18,11,15,21.60
2016,04,18,11,16,21.50
2016,04,18,11,17,21.50
2016,04,18,11,18,21.50
2016,04,18,11,19,21.50
2016,04,18,11,20,21.50
2016,04,18,11,21,21.40
2016,04,18,11,22,21.40
2016,04,18,11,23,21.40
2016,04,18,11,24,21.40
2016,04,18,11,25,21.30
2016,04,18,11,26,21.40
2016,04,18,11,27,21.40
2016,04,18,11,28,21.50
2016,04,18,11,29,21.50
2016,04,18,11,30,21.60
2016,04,18,11,31,21.70
2016,04,18,11,32,21.70
2016,04,18,11,33,21.70
2016,04,18,11,34,21.80
2016,04,18,11,35,21.80
2016,04,18,11,36,21.80
2016,04,18,11,37,21.80
2016,04,18,11,38,21.80
2016,04,18,11,39,21.80
2016,04,18,11,40,21.90
2016,04,18,11,41,21.90
2016,04,18,11,42,22.00
2016,04,18,11,43,21.90
2016,04,18,11,44,21.90
2016,04,18,11,45,21.90
2016,04,18,11,46,21.90
2016,04,18,11,47,21.90
2016,04,18,11,48,21.90
2016,04,18,11,49,21.90
2016,04,18,11,50,21.90
2016,04,18,11,51,21.90
2016,04,18,11,52,21.90
2016,04,18,11,53,21.80
2016,04,18,11,54,21.80
2016,04,18,11,55,21.80
2016,04,18,11,56,21.80
2016,04,18,11,57,21.80
2016,04,18,11,58,21.80
2016,04,18,11,59,21.80
2016,04,18,12,00,21.80
2016,04,18,12,01,21.80
2016,04,18,12,02,21.80
2016,04,18,12,03,21.80
2016,04,18,12,04,21.70
2016,04,18,12,05,21.60
2016,04,18,12,06,21.50
2016,04,18,12,07,21.50
2016,04,18,12,08,21.40
2016,04,18,12,09,21.40
2016,04,18,12,10,21.30
2016,04,18,12,11,21.30
2016,04,18,12,12,21.30
2016,04,18,12,13,21.40
2016,04,18,12,14,21.40
2016,04,18,12,15,21.40
2016,04,18,12,16,21.50
2016,04,18,12,17,21.50
2016,04,18,12,18,21.50
2016,04,18,12,19,21.60
2016,04,18,12,20,21.50
2016,04,18,12,21,21.40
2016,04,18,12,22,21.40
2016,04,18,12,23,21.40
2016,04,18,12,24,21.40
2016,04,18,12,25,21.40
2016,04,18,12,26,21.40
2016,04,18,12,27,21.30
2016,04,18,12,28,21.20
2016,04,18,12,29,21.10
2016,04,18,12,30,21.10
2016,04,18,12,31,21.20
2016,04,18,12,32,21.20
2016,04,18,12,33,21.30
2016,04,18,12,34,21.30
2016,04,18,12,35,21.20
2016,04,18,12,36,21.10
2016,04,18,12,37,21.00
2016,04,18,12,38,20.80
2016,04,18,12,39,20.70
2016,04,18,12,40,20.60
2016,04,18,12,41,20.50
2016,04,18,12,42,20.40
2016,04,18,12,43,20.30
2016,04,18,12,44,20.30
2016,04,18,12,45,20.30
2016,04,18,12,46,20.30
2016,04,18,12,47,20.10
2016,04,18,12,48,19.90
2016,04,18,12,49,19.80
2016,04,18,12,50,19.70
2016,04,18,12,51,19.50
2016,04,18,12,52,19.40
2016,04,18,12,53,19.40
2016,04,18,12,54,19.30
2016,04,18,12,55,19.30
2016,04,18,12,56,19.40
2016,04,18,12,57,19.40
2016,04,18,12,58,19.30
2016,04,18,12,59,19.30
2016,04,18,13,00,19.20
2016,04,18,13,01,19.20
2016,04,18,13,02,19.20
2016,04,18,13,03,19.20
2016,04,18,13,04,19.20
2016,04,18,13,05,19.20
2016,04,18,13,06,19.20
2016,04,18,13,07,19.20
2016,04,18,13,08,19.20
2016,04,18,13,09,19.20
2016,04,18,13,10,19.20
2016,04,18,13,11,19.10
2016,04,18,13,12,19.10
2016,04,18,13,13,19.00
2016,04,18,13,14,19.00
2016,04,18,13,15,18.90
2016,04,18,13,16,19.00
2016,04,18,13,17,19.00
2016,04,18,13,18,19.10
2016,04,18,13,19,19.20
2016,04,18,13,20,19.20
2016,04,18,13,21,19.10
2016,04,18,13,22,19.20
2016,04,18,13,23,19.20
2016,04,18,13,24,19.20
2016,04,18,13,25,19.20
2016,04,18,13,26,19.20
2016,04,18,13,27,19.20
2016,04,18,13,28,19.30
2016,04,18,13,29,19.30
2016,04,18,13,30,19.40
2016,04,18,13,31,19.40
2016,04,18,13,32,19.30
2016,04,18,13,33,19.30
2016,04,18,13,34,19.20
2016,04,18,13,35,19.30
2016,04,18,13,36,19.30
2016,04,18,13,37,19.30
2016,04,18,13,38,19.30
2016,04,18,13,39,19.30
2016,04,18,13,40,19.20
2016,04,18,13,41,19.10
2016,04,18,13,42,19.00
2016,04,18,13,43,19.00
2016,04,18,13,44,18.90
2016,04,18,13,45,18.90
2016,04,18,13,46,18.90
2016,04,18,13,47,18.90
2016,04,18,13,48,18.80
2016,04,18,13,49,18.80
2016,04,18,13,50,18.80
2016,04,18,13,51,18.80
2016,04,18,13,52,18.90
2016,04,18,13,53,18.90
2016,04,18,13,54,19.00
2016,04,18,13,55,19.00
2016,04,18,13,56,19.10
2016,04,18,13,57,19.10
2016,04,18,13,58,19.10
2016,04,18,13,59,19.20
2016,04,18,14,00,19.20
2016,04,18,14,01,19.20
2016,04,18,14,02,19.10
2016,04,18,14,03,19.00
2016,04,18,14,04,19.00
2016,04,18,14,05,18.90
2016,04,18,14,06,18.90
2016,04,18,14,07,19.00
2016,04,18,14,08,19.00
2016,04,18,14,09,19.00
2016,04,18,14,10,19.10
2016,04,18,14,11,19.00
2016,04,18,14,12,19.10
2016,04,18,14,13,19.10
2016,04,18,14,14,19.10
2016,04,18,14,15,19.10
2016,04,18,14,16,19.00
2016,04,18,14,17,18.90
2016,04,18,14,18,18.90
2016,04,18,14,19,18.90
2016,04,18,14,20,18.90
2016,04,18,14,21,18.90
2016,04,18,14,22,18.90
2016,04,18,14,23,19.00
2016,04,18,14,24,19.00
2016,04,18,14,25,19.00
2016,04,18,14,26,19.00
2016,04,18,14,27,19.10
2016,04,18,14,28,19.10
2016,04,18,14,29,19.10
2016,04,18,14,30,19.10
2016,04,18,14,31,19.10
2016,04,18,14,32,19.20
2016,04,18,14,33,19.20
2016,04,18,14,34,19.30
2016,04,18,14,35,19.30
2016,04,18,14,36,19.40
2016,04,18,14,37,19.50
2016,04,18,14,38,19.60
2016,04,18,14,39,19.70
2016,04,18,14,40,19.70
2016,04,18,14,41,19.80
2016,04,18,14,42,19.80
2016,04,18,14,43,19.90
2016,04,18,14,44,19.90
2016,04,18,14,45,19.80
2016,04,18,14,46,19.80
2016,04,18,14,47,19.70
2016,04,18,14,48,19.80
2016,04,18,14,49,19.80
2016,04,18,14,50,19.90
2016,04,18,14,51,19.90
2016,04,18,14,52,19.90
2016,04,18,14,53,19.90
2016,04,18,14,54,19.90
2016,04,18,14,55,19.90
2016,04,18,14,56,19.90
2016,04,18,14,57,19.90
2016,04,18,14,58,19.80
2016,04,18,14,59,19.90
2016,04,18,15,00,19.90
2016,04,18,15,01,20.00
2016,04,18,15,02,20.10
2016,04,18,15,03,20.10
2016,04,18,15,04,20.10
2016,04,18,15,05,20.10
2016,04,18,15,06,20.20
2016,04,18,15,07,20.20
2016,04,18,15,08,20.20
2016,04,18,15,09,20.30
2016,04,18,15,10,20.30
2016,04,18,15,11,20.30
2016,04,18,15,12,20.40
2016,04,18,15,13,20.40
2016,04,18,15,14,20.40
2016,04,18,15,15,20.40
2016,04,18,15,16,20.40
2016,04,18,15,17,20.40
2016,04,18,15,18,20.40
2016,04,18,15,19,20.40
2016,04,18,15,20,20.40
2016,04,18,15,21,20.30
2016,04,18,15,22,20.30
2016,04,18,15,23,20.40
2016,04,18,15,24,20.40
2016,04,18,15,25,20.40
2016,04,18,15,26,20.40
2016,04,18,15,27,20.40
2016,04,18,15,28,20.40
2016,04,18,15,29,20.40
2016,04,18,15,30,20.40
2016,04,18,15,31,20.40
2016,04,18,15,32,20.40
2016,04,18,15,33,20.40
2016,04,18,15,34,20.40
2016,04,18,15,35,20.30
2016,04,18,15,36,20.30
2016,04,18,15,37,20.30
2016,04,18,15,38,20.40
2016,04,18,15,39,20.40
2016,04,18,15,40,20.50
2016,04,18,15,41,20.50
2016,04,18,15,42,20.60
2016,04,18,15,43,20.60
2016,04,18,15,44,20.60
2016,04,18,15,45,20.50
2016,04,18,15,46,20.50
2016,04,18,15,47,20.50
2016,04,18,15,48,20.50
2016,04,18,15,49,20.50
2016,04,18,15,50,20.60
2016,04,18,15,51,20.60
2016,04,18,15,52,20.60
2016,04,18,15,53,20.60
2016,04,18,15,54,20.60
2016,04,18,15,55,20.60
2016,04,18,15,56,20.60
2016,04,18,15,57,20.70
2016,04,18,15,58,20.70
2016,04,18,15,59,20.80
2016,04,18,16,00,20.80
2016,04,18,16,01,20.80
2016,04,18,16,02,20.80
2016,04,18,16,03,20.80
2016,04,18,16,04,20.80
2016,04,18,16,05,20.80
2016,04,18,16,06,20.80
2016,04,18,16,07,20.80
2016,04,18,16,08,20.80
2016,04,18,16,09,20.80
2016,04,18,16,10,20.80
2016,04,18,16,11,20.80
2016,04,18,16,12,20.90
2016,04,18,16,13,20.90
2016,04,18,16,14,20.90
2016,04,18,16,15,20.90
2016,04,18,16,16,20.90
2016,04,18,16,17,20.90
2016,04,18,16,18,20.90
2016,04,18,16,19,20.90
2016,04,18,16,20,20.90
2016,04,18,16,21,20.90
2016,04,18,16,22,21.00
2016,04,18,16,23,21.00
2016,04,18,16,24,21.10
2016,04,18,16,25,21.10
2016,04,18,16,26,21.10
2016,04,18,16,27,21.10
2016,04,18,16,28,21.10
2016,04,18,16,29,21.10
2016,04,18,16,30,21.10
2016,04,18,16,31,21.10
2016,04,18,16,32,21.10
2016,04,18,16,33,21.10
2016,04,18,16,34,21.00
2016,04,18,16,35,20.90
2016,04,18,16,36,20.80
2016,04,18,16,37,20.70
2016,04,18,16,38,20.70
2016,04,18,16,39,20.60
2016,04,18,16,40,20.60
2016,04,18,16,41,20.60
2016,04,18,16,42,20.60
2016,04,18,16,43,20.60
2016,04,18,16,44,20.60
2016,04,18,16,45,20.60
2016,04,18,16,46,20.60
2016,04,18,16,47,20.60
2016,04,18,16,48,20.60
2016,04,18,16,49,20.60
2016,04,18,16,50,20.60
2016,04,18,16,51,20.60
2016,04,18,16,52,20.60
2016,04,18,16,53,20.60
2016,04,18,16,54,20.60
2016,04,18,16,55,20.50
2016,04,18,16,56,20.50
2016,04,18,16,57,20.50
2016,04,18,16,58,20.40
2016,04,18,16,59,20.40
2016,04,18,17,00,20.40
2016,04,18,17,01,20.30
2016,04,18,17,02,20.30
2016,04,18,17,03,20.20
2016,04,18,17,04,20.20
2016,04,18,17,05,20.20
2016,04,18,17,06,20.20
2016,04,18,17,07,20.20
2016,04,18,17,08,20.20
2016,04,18,17,09,20.00
2016,04,18,17,10,19.60
2016,04,18,17,11,19.10
2016,04,18,17,12,18.60
2016,04,18,17,13,18.10
2016,04,18,17,14,17.70
2016,04,18,17,15,17.40
2016,04,18,17,16,17.20
2016,04,18,17,17,17.00
2016,04,18,17,18,16.90
2016,04,18,17,19,16.70